Retour au catalogue

FENGYUN 1C DEB

ActifSSO
NORAD 30753·DEBRIS·🇨🇳 China

Lancé May 10, 1999 depuis Taiyuan Satellite Launch Center

Loading…

Prochains Passages (prochaines 24 heures)

TLE

FraisSource: Space-Track

Époque: Sep 14, 2026, 13:33 UTC

1 30753U 99025ATP 26257.56462440  .00001071  00000-0  58472-3 0  9994
2 30753  98.7865 296.3842 0053990 291.0022  68.5380 14.13458818  2486

Suivez FENGYUN 1C DEB en temps réel avec AllMySat

Download on the App Store